loading
DOY 175 | 2024-06-23T11:58:16Z

THOR ABLESTAR R/B, 703

Orbit data source: Space-Track

THOR ABLESTAR R/B, 703 is space debris in LEO originally from a launch on Thu, 05 Dec 1963 UTC launched from the Air Force Western Test Range (AFWTR). Debris objects in space refer to the collection of defunct objects orbiting the Earth. Examples of debris include non-operational satellites, rocket bodies, and fragments generated from explosions, collisions, or faulty payload assembly.

Loading next visibility...
Loading greatness...
THOR ABLESTAR R/B details
NORAD ID703
COSPAR ID
1963-049A
Orbit
LEO
Last TLE update7 hours ago
Origin
Flag of USUSAF SSD (US)
ManufacturerAerojet
BusAblestar
MotorUnknown
Mass~600 kg wet, 600 kg dry
Launch date (UTC)
1963-12-05 (61 years ago)
Launch vehicleUnknown
Launch site
Air Force Western Test Range (AFWTR)
Object type
Payload
Rocket body
Debris
Radar Cross Section4 m², Large (>1 m²)
Predictive object data (real-time)
Latitude66.10588°
Longitude84.24647°
Altitude1,091.097 km
Speed7.309 km/s
Apparent Right ascension08h 59m 03s
Apparent Declination25° 26' 30"
Sunlit
Object is in daylight
Predictive observer data (real-time)
Local Sidereal Time23:06:22
Azimuth30.094° NE
Elevation-18.228°
Doppler factor1
Orbital elements
Apogee1,080.907 km
Perigee1,058.276 km
Semi-major axis7,447.728 km
Eccentricity0.0015193
Inclination89.9174°
RAAN76.1612°
Arg. of periapsis195.3587°
True anomaly330.45504°
Mean anomaly330.5408°
Mean motion3.37682 °/min
BSTAR0.000078801
Period106.61 mins
Definitive object data (Epoch: 2024-06-23T05:20:53.522Z)
Latitude14.15523°
Longitude-95.95745°
Altitude1,064.917 km
Speed7.325 km/s
True Right ascension17h 04m 33s
True Declination14° 04' 38"
Sunlit
Object was in full shadow at TLE epoch
TLE from 7 hours ago
0 THOR ABLESTAR R/B
1   703U 63049A   24175.22284169  .00000060  00000-0  78801-4 0  9999
2   703  89.9174  76.1612 0015193 195.3587 330.5408 13.49923140982031
Epoch: 2024-06-23T05:20Z
No data available

THOR ABLESTAR R/B Visibility forecast

Observer location: 39.9160978°, -105.1181434, 0m alt.

THOR ABLESTAR R/B is not visible in the next 10 days
Span
Click to sort rows by Start time (UTC) header in descending order
Start Az.
Max El. time (UTC)
Max El. Az.
Max El.
End time (UTC)
End Az.